Regional Weather Roundup
Issued by NWS Upton, NY

Current Version | Previous Version | Graphics & Text | Print | Product List | Glossary Off
Versions: 1 2 3 4 5 6 7 8 9 10 11 12 13 14 15 16 17 18 19 20 21 22 23 24 25 26 27 28 29 30 31 32 33 34 35 36 37 38 39 40 41 42 43 44 45 46 47 48 49 50

000
ASUS41 KOKX 182305
RWROKX

REGIONAL WEATHER ROUNDUP
NATIONAL WEATHER SERVICE NEW YORK NY
700 PM EDT THU SEP 18 2014

NOTE: "FAIR" INDICATES FEW OR NO CLOUDS BELOW 12,000 FEET WITH NO
SIGNIFICANT WEATHER AND/OR OBSTRUCTIONS TO VISIBILITY.

NYZ071-072-176-178-NJZ106-104-190000-
NEW YORK CITY METRO AREA


CITY           SKY/WX    TMP DP  RH WIND       PRES   REMARKS
CENTRAL PARK   CLEAR     72  41  32 CALM      30.03R
LAGUARDIA APRT PTCLDY    73  43  33 N7        29.99R
KENNEDY INTL   PTCLDY    71  53  52 S9        30.00S
NEWARK/LIBERTY PTCLDY    73  43  33 NW10      30.00R
BRNX BOT. GARD   N/A     70  45  40 NE3       30.02R
TETERBORO      CLEAR     72  41  32 N7        29.99R
$$

NYZ177-179-078>081-190000-
LONG ISLAND NEW YORK

CITY           SKY/WX    TMP DP  RH WIND       PRES   REMARKS
FARMINGDALE    CLEAR     69  52  54 S5        30.00S
ISLIP          PTCLDY    67  53  61 SW5       29.99S
SHIRLEY        CLEAR     66  47  50 CALM      30.01S
WESTHAMPTON    CLEAR     66  45  46 CALM      30.02R
MONTAUK POINT    N/A     70  53  54 W5        30.01S
$$

NYZ052-065-067-190000-
HUDSON VALLEY

CITY           SKY/WX    TMP DP  RH WIND       PRES   REMARKS
WHITE PLAINS   PTCLDY    67  48  50 CALM      30.01R
NEWBURGH       NOT AVBL
MONTGOMERY     CLEAR     61  51  70 CALM      30.01R
POUGHKEEPSIE   PTCLDY    63  52  67 NE3       30.00R
ALBANY         PTCLDY    55  47  74 N8        30.08R
$$

NJZ001-105-106-008-010-013-015-019>022-104-190000-
NEW JERSEY

CITY           SKY/WX    TMP DP  RH WIND       PRES   REMARKS
NEWARK/LIBERTY PTCLDY    73  43  33 NW10      30.00R
TETERBORO      CLEAR     72  41  32 N7        29.99R
CALDWELL       CLEAR     67  46  47 CALM      30.01S
MORRISTOWN     PTCLDY    66  50  55 N3        30.01R
SOMERVILLE     NOT AVBL
LINDEN         FAIR      75  49  38 NW6       30.01S
SUSSEX         CLEAR     64  50  60 CALM      30.02S
ANDOVER          N/A     60  51  72 CALM      30.03R
TRENTON        CLEAR     70  50  49 CALM      30.00R
MILLVILLE      MOCLDY    66  59  78 CALM      30.02S
ATLANTIC CITY  MOCLDY    69  53  56 S3        30.02R
WRIGHTSTOWN    MOCLDY    66  57  71 SW6       29.99S
TOMS RIVER     PTCLDY    66  55  68 CALM      30.02S
BELMAR         CLEAR     66  52  59 CALM      30.01S
$$

PAZ047>061-062-071-190000-
EASTERN PENNSYLVANIA

CITY           SKY/WX    TMP DP  RH WIND       PRES   REMARKS
PHILADELPHIA   PTCLDY    70  55  59 SW8       30.02R
ALLENTOWN      CLEAR     67  42  40 NW3       30.02R
SCRANTON       CLEAR     66  43  43 N5        30.04S
$$

CTZ002-004>006-009-010-012-RIZ004-006-007-MAZ004-011-015-190000-
SOUTHERN NEW ENGLAND
 IN CT

CITY           SKY/WX    TMP DP  RH WIND       PRES   REMARKS
BRADLEY INTL   PTCLDY    66  49  54 NW6       30.00R
HARTFORD       CLEAR     70  45  40 VRB6      30.00R
DANBURY        CLEAR     61  51  70 SW5       30.03R
WTRBRY/OXFORD  CLEAR     64  46  52 N5        30.02S
BRIDGEPORT     CLEAR     71  46  40 N5        30.00R
MERIDEN        CLEAR     63  49  60 CALM      30.00R
NEW HAVEN      CLEAR     71  45  39 NW5       30.00S
CHESTER        FAIR      64  54  68 CALM      30.01S
GROTON         CLEAR     65  53  65 W6        29.99R
WILLIMANTIC    CLEAR     64  51  62 N3        30.01R

 IN RI

CITY           SKY/WX    TMP DP  RH WIND       PRES   REMARKS
PROVIDENCE     PTCLDY    69  48  47 NW6       30.00R
BLOCK ISLAND   CLEAR     66  54  63 W8        30.00R
WESTERLY       CLEAR     67  48  50 CALM      30.00R

 IN MA

CITY           SKY/WX    TMP DP  RH WIND       PRES   REMARKS
BOSTON         MOCLDY    66  51  58 CALM      30.00R
WORCESTER      CLOUDY    62  50  64 NW6       30.03R
WESTFIELD      PTCLDY    64  49  57 N6        30.01R
PROVINCETOWN   MOCLDY    61  52  72 E3        30.00R
NANTUCKET      CLEAR     61  50  67 CALM      30.01R
$$

ANZ330-335-338-340-345-350-353-355-190000-
COASTAL MARINE OBSERVATIONS


STATION/POSITION TIME  SKY/WX   TEMP    WIND        PRES    VSBY  WAVE
                                AIR SEA DIR/SP/G                  HT/PER
                 (UTC)          (F)     (DEG/KT/KT) (MB)    (MI)  (FT/S)
NY HARB ENTRANCE 2300            70 71  210/ 10/ 10 1016.2          2/13
4S FIRE IS       2300               71                N/A           3/11
23SW MTP         2300                                 N/A           3/11
HUDSON CANYON    2300            69 74  330/  8/ 10 1016.1          3/11
EXECUTION ROCKS  2300            74 71   50/  8/ 10   N/A
WESTERN LI SOUND 2300            72      30/  6/  8   N/A           0
CENTRAL LI SOUND 2200            71 71  260/  8/ 10   N/A           1
EASTERN LI SOUND 2200            69 68  280/ 10/ 12   N/A
ROBBINS REEF     2300            74     320/ 10/ 11 1014.6
$$


>>>>>>>>>>>>>>>>>>>>>>>>>>>> KEY <<<<<<<<<<<<<<<<<<<<<<<<<<<
>                                                          <
>     SKY/WX - SKY CONDITION/PRESENT WEATHER               <
>     TMP    - TEMPERATURE IN FAHRENHEIT                   <
>     DP     - DEWPOINT IN FAHRENHEIT                      <
>     RH     - RELATIVE HUMIDITY IN PERCENT                <
>     WIND   - DIRECTION AND SPEED IN MPH                  <
>     PRES   - MEAN SEA LEVEL PRESSURE IN INCHES OF HG     <
>     WCI    - WIND CHILL INDEX                            <
>     VSB    - VISIBILITY IN MILES                         <
>     HX     - HEAT INDEX                                  <
>     TC     - TEMPERATURE IN CELSIUS                      <
>     VRB    - VARIABLE WIND DIRECTION                     <
>                                                          <
>>>>>>>>>>>>>>>>>>>>>>>>>>>> KEY <<<<<<<<<<<<<<<<<<<<<<<<<<<




USA.gov is the U.S. government's official web portal to all federal, state and local government web resources and services.